Regional Weather Roundup
Issued by NWS

Home | Current Version | Previous Version | Text Only | Print | Product List | Glossary On
Versions: 1 2 3 4 5 6 7 8 9 10 11 12 13 14 15 16 17 18 19 20 21 22 23 24 25 26 27 28 29 30 31 32 33 34 35 36 37 38 39 40 41 42 43 44 45 46 47 48 49 50
000
ASUS43 KDTX 231001
RWRMI
MICHIGAN HOURLY REGIONAL WEATHER ROUNDUP
NATIONAL WEATHER SERVICE DETROIT/PONTIAC MI
500 AM EST MON JAN 23 2017

NOTE: "FAIR" INDICATES FEW OR NO CLOUDS BELOW 12,000 FEET WITH NO
SIGNIFICANT WEATHER AND/OR OBSTRUCTION TO VISIBILITY.

MIZ047>049-052>055-059>063-066>070-074>076-081>083-231100-
SOUTHEAST LOWER MICHIGAN

CITY           SKY/WX    TMP DP  RH WIND       PRES   REMARKS
ADRIAN         FOG       42  42 100 E9        29.61S VSB 1/2
ALMA           CLOUDY    38  38  99 N3        29.67S FOG
ANN ARBOR      FOG       42  42 100 N7        29.62R VSB 1
BAD AXE        CLOUDY    38  38 100 E5        29.68S FOG     WCI  34
CARO           FOG       39  39 100 E3        29.66S VSB 3/4
DETROIT CITY   CLOUDY    41  41 100 NE8       29.63S FOG
DETROIT        DRIZZLE   42  41  96 NE10      29.63S FOG
FLINT          FOG       39  39 100 NE7       29.64F VSB 3/4 WCI  34
GROSSE ILE     FOG       40  40 100 NE10      29.61S VSB 1/2 WCI  34
HILLSDALE      FOG       41  41 100 NE7       29.59R VSB 3/4
HOWELL         CLOUDY    39  38  98 CALM      29.63R FOG

CITY           SKY/WX    TMP DP  RH WIND       PRES   REMARKS
JACKSON        CLOUDY    41  40  96 CALM      29.61F FOG
LAMBERTVILLE   CLOUDY    43  42  95 NE7       29.60S FOG
LANSING        FOG       39  36  89 N7        29.65S VSB 1/2 WCI  34
LAPEER         FOG       38  38 100 E5        29.66S VSB 1/4 WCI  35
MASON          FOG       39  39 100 N3        29.63S VSB 1
MONROE         CLOUDY    42  42 100 NE6       29.61R FOG
MT. CLEMENS    FOG       40  40 100 N7        29.62S VSB 3/4 WCI  35
PONTIAC        FOG       40  38  93 NE5       29.62S VSB 3/4
PORT HOPE        N/A     36  36 100 NE6       29.67F WCI  31
PORT HURON     CLOUDY    37  37 100 N5        29.65F FOG     WCI  34
TRI CITIES     FOG       36  36 100 N8        29.67S VSB 1/4 WCI  30
MIDLAND        CLOUDY    39  38  97 NE6       29.67S FOG     WCI  34
TROY           FOG       41  40  96 N5        29.65S VSB 3/4
SAGINAW HB     FOG       36  34  93 N3        29.66S VSB 1
$$
MIZ043>046-050>051-056>058-064>065-071>073-077>080-231100-
SOUTHWEST LOWER MICHIGAN

CITY           SKY/WX    TMP DP  RH WIND       PRES   REMARKS
BATTLE CREEK   CLOUDY    40  40 100 N8        29.64S FOG     WCI  34
BENTON HARBOR  CLOUDY    39  37  92 N7        29.68R FOG     WCI  34
BIG RAPIDS     CLOUDY    37  37  98 CALM      29.67S FOG
COLDWATER      FOG       42  42 100 N8        29.61S VSB 1
FREMONT        CLOUDY    37  37 100 N5        29.68S FOG     WCI  33
HOLLAND        CLOUDY    40  38  93 NW3       29.68S
GRAND RAPIDS   FOG       40  38  93 N6        29.67R VSB 3/4
IONIA          FOG       38  38  99 N5        29.65S VSB 1   WCI  34
KALAMAZOO      FOG       42  39  89 N8        29.65R VSB 1
LUDINGTON      FOG       37  37 100 N3        29.69S VSB 1/4
MARSHALL       CLOUDY    40  40  98 CALM      29.63R FOG
MOUNT PLEASANT FOG       38  37  99 N5        29.67R VSB 1   WCI  34
MUSKEGON       CLOUDY    38  36  92 N6        29.69S WCI  33
SOUTH HAVEN    CLOUDY    38  37  99 N8        29.68R FOG     WCI  32
$$
MIZ016>042-231100-
NORTHERN LOWER MICHIGAN

CITY           SKY/WX    TMP DP  RH WIND       PRES   REMARKS
ALPENA         FOG       37  37 100 E5        29.72S VSB 1/4 WCI  33
BEAVER ISLAND  FOG       35  35 100 CALM      29.71F VSB 3/4
BELLAIRE       FOG       33  33  99 CALM      29.71R VSB 1/4
CADILLAC       FOG       36  35  96 CALM      29.67S VSB 1/2
CHARLEVOIX     FOG       35  35 100 CALM      29.73S VSB 3/4
FRANKFORT      FOG      N/A N/A N/A CALM      29.70S VSB 1/4
GAYLORD        FOG       38  34  85 CALM      29.68S VSB 1
GRAYLING       FOG       36  35  99 CALM      29.69S VSB 1/2
HARBOR SPRINGS FOG       34  34 100 E5        29.71S VSB 3/4 WCI  30
HOUGHTON LAKE  CLOUDY    37  37 100 N3        29.68S FOG
MANISTEE       FOG       37  36  96 CALM      29.69F VSB 1/4
OSCODA         FOG       37  37  97 NE3       29.70S VSB 3/4
PELLSTON       FOG       34  33  96 CALM      29.72S VSB 1/2
ROGERS CITY    SNOW      37  36  96 E5        29.74R VSB 1/2 WCI  33
TRAVERSE CITY  FOG       37  36  96 CALM      29.69S VSB 1/2
$$
MIZ007>008-015-231100-
EASTERN UPPER MICHIGAN

CITY           SKY/WX    TMP DP  RH WIND       PRES   REMARKS
KINROSS        MIX PCPN  35  34  96 E13       29.74S FOG     WCI  26
MACKINAC ISLAN FOG       35  35 100 E9G16     29.72S VSB 1/4 WCI  27
NEWBERRY       FOG       34  33  96 E5        29.72S VSB 1/4 WCI  30
S. S. MARIE    CLOUDY    37  36  96 E6        29.75R FOG     WCI  32
MUNISING         N/A     33  33 100 CALM      29.72F
$$
MIZ004>006-011>014-085-231100-
CENTRAL UPPER MICHIGAN

CITY           SKY/WX    TMP DP  RH WIND       PRES   REMARKS
MANISTIQUE     FOG       34  33  97 E3        29.72S VSB 1/2
ESCANABA       FOG       36  35  96 NW3       29.72S VSB 1
SAWYER-GWINN   FOG       33  33  99 CALM      29.71S VSB 1
$$
MIZ001>003-009>011-084-231100-
WESTERN UPPER MICHIGAN

CITY           SKY/WX    TMP DP  RH WIND       PRES   REMARKS
IRON MOUNTAIN  CLOUDY    35  32  88 CALM      29.71S
HOUGHTON       FOG       34  32  92 W8        29.72R VSB 1/4 WCI  27
COPPER HARBOR    N/A     36  35  96 W5        29.72R WCI  32
IRONWOOD       CLOUDY    34  33  96 SW5       29.75S WCI  30
$$

ABBREVIATIONS USED IN REMARKS
   TC - TEMPERATURE IN CELSIUS
  WCI - WIND CHILL INDEX
   HX - HEAT INDEX
  VSB - VISIBILITY





USA.gov is the U.S. government's official web portal to all federal, state and local government web resources and services.